DMSP 5D-2 F11 DEB, 28344

Orbit data source: Space-Track

DMSP 5D-2 F11 DEB, 28344 is space debris in SSO originally from a launch on Thu, 28 Nov 1991 UTC launched from the Air Force Western Test Range (AFWTR). Debris objects in space refer to the collection of defunct objects orbiting the Earth. Examples of debris include non-operational satellites, rocket bodies, and fragments generated from explosions, collisions, or faulty payload assembly.

Loading next visibility...
Identifier
28344, 1991-082BH
Orbit
SSO
Country
Flag of USUS
Related business
Manufacturer
Unknown
Mission
Spacecraft
Bus & Motor
Unknown
Mass
Unknown
Launch date (UTC)
1991-11-28 (35 years ago)
Launch vehicle
Unknown
Launch site
Air Force Western Test Range (AFWTR)
Object type
Payload
Rocket body
Debris
Shape & HBR
Unknown shape, 0.1 m
Radar Cross Section
Medium (>0.1 m² and <1 m²)

Expand to show TLE details & history
Last TLE update: 2 days ago

TLE from 2 days ago
0 DMSP 5D-2 F11 DEB
1 28344U 91082BH  26207.52893814  .00016962  00000-0  23914-2 0  9993
2 28344  98.5204 311.1962 0005968 193.3554 229.0854 14.77305871688759
Epoch: 2026-07-26T12:41Z
TLE epoch observation values (Epoch: 2026-07-26T12:41:40.255Z)
Latitude
61.30081°
Longitude
160.75936°
Altitude
651.05 km
Speed
7.537 km/s
True Right ascension
19h 41m 36s
True Declination
61° 09' 13"
Sunlit
Object was in daylight at epoch
Visualization orbit readout
Latitude
Unknown
Longitude
Unknown
Altitude
Unknown
Speed
Unknown
Apparent Right ascension
Unknown
Apparent Declination
Unknown
Sunlit
N/A
Visualization observer readout
Local Sidereal Time
15:12:58
Azimuth
Unknown
Elevation
Unknown
Doppler factor
Unknown
Orbital elements
Apogee altitude
639.1 km
Perigee altitude
630.729 km
Semi-major axis
7,013.051 km
Eccentricity
0.0006
Inclination
98.5204°
RAAN
311.1962°
Arg. of periapsis
193.3554°
True anomaly
229.03375°
Mean anomaly
229.0854°
Eccentric anomaly
229.05957°
Mean motion
3.69558 °/min
Orbital period
97.41 mins
BSTAR
0.0023914
Loading maneuver chart data...
Computing Atmospheric mass density...

Documentation

Showing up to 5 results
|